Regional Weather Roundup
Issued by NWS State College, PA

Home | Current Version | Previous Version | Text Only | Print | Product List | Glossary On
Versions: 1 2 3 4 5 6 7 8 9 10 11 12 13 14 15 16 17 18 19 20 21 22 23 24 25 26 27 28 29 30 31 32 33 34 35 36 37 38 39 40 41 42 43 44 45 46 47 48 49 50
000
ASUS41 KCTP 151210
RWRCTP

REGIONAL WEATHER ROUNDUP
NATIONAL WEATHER SERVICE STATE COLLEGE PA
800 AM EDT MON OCT 15 2018

Note: "fair" indicates few or no clouds below 12,000 feet with no
significant weather and/or obstructions to visibility.

* = STATION THAT DOES NOT REPORT PRECIPITATION /E.G. RAIN...SNOW...ETC/
    THUNDER OR FOG.

PAZ002>004-007>009-013>016-020>023-029>032-151300-
WESTERN PENNSYLVANIA

CITY           SKY/WX    TMP DP  RH WIND       PRES   REMARKS
ERIE           CLOUDY    56  53  90 S9        29.90F
MEADVILLE      CLOUDY    54  54 100 SW6       29.92S FOG
FRANKLIN*      LGT RAIN  55  55 100 SW9       29.94S FOG
NEW CASTLE     LGT RAIN  58  57  97 S5        29.94F FOG
BEAVER COUNTY  DRIZZLE   57  57 100 SW9       29.95F
BUTLER*        LGT RAIN  57  57 100 SW9       29.96S FOG
PITTSBURGH INT DRIZZLE   59  59 100 SW12G18   29.96S FOG
PITTSBURGH     CLOUDY    59  59 100 S10       29.98R
INDIANA*       CLOUDY    59  59 100 SW14      30.02S FOG
LATROBE        LGT RAIN  61  61 100 SW14G25   29.99R
WASHINGTON CO* CLOUDY    61  59  93 SW10G17   30.01R
$$

PAZ004>006-010>012-017>019-024>028-033>037-041-042-045-046-049>053-151300-
CENTRAL PENNSYLVANIA

CITY           SKY/WX    TMP DP  RH WIND       PRES   REMARKS
BRADFORD       FOG       50  50 100 VRB3      29.95R VSB 1
DUBOIS         FOG       54  53  97 S7        29.96R VSB 1
CLEARFIELD     CLOUDY    49  49 100 CALM      29.99S FOG
JOHNSTOWN      CLOUDY    57  56  96 SW9       30.00F FOG
ALTOONA        CLOUDY    55  50  83 VRB3      30.03S
STATE COLLEGE  CLOUDY    50  50 100 SW7       30.03S FOG
WILLIAMSPORT   CLOUDY    52  50  93 NE10G16   30.01F
SELINSGROVE    CLOUDY    54  53  97 S5        30.05F
FT INDIANTOWN  DRIZZLE   53  52  96 CALM      30.07F FOG
CAPITAL CITY   CLOUDY    59  54  83 SW6       30.08S HAZE
HARRISBURG     CLOUDY    57  54  89 SE3       30.07S FOG
YORK           CLOUDY    58  56  93 SW6       30.08R
$$

PAZ038>040-043-044-047-048-054-055-060>062-067>071-151300-
EASTERN PENNSYLVANIA

CITY           SKY/WX    TMP DP  RH WIND       PRES   REMARKS
SCRANTON       CLOUDY    52  51  97 S7        30.04F
MOUNT POCONO   LGT RAIN  49  49 100 S9        30.08S VSB 1/4
ALLENTOWN      LGT RAIN  56  52  86 CALM      30.10F FOG
QUAKERTOWN*    CLOUDY    55  55 100 S6        30.10F FOG
READING        CLOUDY    56  56 100 CALM      30.07F
LANCASTER      LGT RAIN  58  57  97 S6        30.08S
COATESVILLE    CLOUDY    55  55 100 VRB5      30.11F
POTTSTOWN      CLOUDY    54  54 100 CALM      30.11F FOG
BLUE BELL      CLOUDY    54  54 100 CALM      30.12F
DOYLESTOWN     LGT RAIN  54  52  93 MISG      30.10F
WILLOW GROVE   NOT AVBL
NORTH PHILA    CLOUDY    59  55  87 VRB5      30.13F
PHILADELPHIA   LGT RAIN  60  55  83 S10       30.12F
$$



USA.gov is the U.S. government's official web portal to all federal, state and local government web resources and services.